User: anonymous   Login
Location: Lawrence
(38.9720°N, 95.2350°W)
Time: 20:38:27
(UTC-05:00)
Language:

JAS-1B - Orbit

View from above orbital plane
View from above orbital plane
View from above satellite
View from above satellite

Ground track
Ground track

The orbit data is extracted from the following two-line orbital elements,

1 20480U 90013C   16151.81299866 -.00000020 +00000-0 +24273-4 0  9995
2 20480 099.0234 351.3714 0540325 177.5907 254.2344 12.83411262232621
Epoch (UTC): 30 May 2016 19:30:43
Eccentricity: 0.0540325
inclination: 99.0234°
perigee height: 911 km
apogee height: 1744 km
right ascension of ascending node: 351.3714°
argument of perigee: 177.5907°
revolutions per day: 12.83411262
mean anomaly at epoch: 254.2344°
orbit number at epoch: 23262

The dashed part of the orbit path shows where the satellite is in the earth's shadow,  

DLR